Location: Chapelle Sainte-Anne
(44.4833°N, 6.7167°E)
Time: 00:26:11
(UTC+00:00)

Daily predictions for brighter satellites

Satellite Brightness Start Highest point End
(mag) Time Altitude Azimuth Time Altitude Azimuth Time Altitude Azimuth
CENTAUR R/B 3.4 03:44:23 42° NNE 03:44:23 42° NNE 03:49:14 10° NE
Cosmos 1486 Rocket 4.3 04:03:40 65° ESE 04:03:42 65° ESE 04:08:56 10° NNE
Cosmos 1151 Rocket 4.1 04:05:31 43° E 04:05:31 43° E 04:09:22 10° SSE
SL-8 R/B 4.4 04:07:03 51° E 04:07:03 51° E 04:10:44 10° ESE
NOSS 3-2 (C) 3.8 04:12:49 48° N 04:12:49 48° N 04:18:03 10° NNE
DNEPR-1 R/B 4.2 04:11:35 63° NE 04:11:45 63° NE 04:17:23 10° SE
Cosmos 1766 Rocket 4.2 04:15:43 10° S 04:19:55 53° E 04:24:09 10° NNE
BREEZE-M DEB (TANK) 3.2 04:21:03 66° SW 04:21:17 67° SSW 04:33:30 10° SE
Envisat 3.6 04:19:44 10° NNE 04:24:46 57° E 04:29:45 10° S
Cosmos 1328 Rocket 4.2 04:25:33 33° NNE 04:27:15 53° ENE 04:31:29 10° SSE
Cosmos 2263 4.1 04:24:34 30° SSW 04:27:35 86° ESE 04:33:22 10° NNE
Cosmos 2098 Rocket 3.0 04:32:19 64° S 04:33:00 90° E 04:38:12 10° N
Cosmos 2369 Rocket 2.1 04:34:16 62° WNW 04:34:28 62° WNW 04:40:03 10° NNE
Cosmos 2344 4.0 04:34:44 36° NW 04:35:27 37° NW 04:42:52 10° NNE
SL-19 R/B 4.1 04:32:54 10° SSE 04:38:29 79° WSW 04:41:27 29° NNW
Cosmos 2142 Rocket 4.5 04:32:06 10° N 04:38:30 88° E 04:44:54 10° S
USA 238 DEB 4.1 04:39:33 39° NW 04:39:53 39° NW 04:46:20 10° NNE
USA 238 4.1 04:39:38 39° NW 04:39:59 40° NW 04:46:26 10° NNE
Cosmos 1656 Rocket 3.4 04:37:56 36° SW 04:40:13 76° WNW 04:45:41 10° NNE
COSMO-SKYMED 1 2.6 04:36:43 10° SSE 04:41:03 77° ENE 04:42:52 35° N
Cosmos 2279 Rocket 3.9 04:36:39 10° N 04:42:53 89° E 04:49:05 10° S
USA 215 3.6 04:36:59 10° ESE 04:43:22 60° NNE 04:46:51 28° NW
H-2A R/B 4.2 04:41:06 10° NNE 04:46:53 26° SSW 04:48:37 10° SSW
BREEZE-M DEB (TANK) 4.4 04:28:25 10° SW 04:45:03 58° SSE 04:49:16 10° ENE
Meteor 1-31 Rocket 3.1 04:41:32 10° NNE 04:45:26 65° ESE 04:49:19 10° S
Helios 1B 4.4 04:44:27 10° SSE 04:48:46 84° WSW 04:50:21 39° NNW
DELTA 2 R/B (1) 4.1 04:46:42 33° SW 04:48:48 50° S 04:54:09 10° E
Cosmos 1408 Rocket 4.2 04:48:12 10° S 04:52:24 56° E 04:56:37 10° NNE
Cosmos 1943 Rocket 3.6 04:54:24 20° NNW 04:54:24 20° NNW 04:57:06 10° N
CZ-2C R/B 2.5 04:47:07 10° SSE 04:52:36 82° WSW 04:57:37 12° NNW
CBERS 1 LM4 rocket 4.4 04:48:45 10° NNE 04:53:40 84° ESE 04:58:45 10° SSW
CZ-4B R/B 4.1 04:50:00 10° NNE 04:54:29 87° ESE 04:58:57 10° SSW
Cosmos 1354 Rocket 3.9 04:53:20 10° SSW 04:58:38 87° WNW 05:03:58 10° NNE
Cosmos 1634 Rocket 4.3 04:58:14 22° NNW 05:01:51 42° W 05:07:37 10° SSW
Meteor 2-15 4.4 04:58:04 10° N 05:04:10 87° E 05:10:13 10° S
Landsat 5 3.5 05:04:26 10° S 05:08:56 73° WSW 05:12:33 16° NNW
Cosmos 1515 Rocket 3.5 05:06:52 10° N 05:11:15 86° E 05:15:35 10° S
SJ 16-02 1.9 05:07:23 10° S 05:11:41 60° ESE 05:16:00 10° NNE
ADEOS 3.7 05:08:33 10° NNE 05:13:49 80° ESE 05:19:02 10° SSW
BREEZE-M DEB (TANK) 3.6 05:16:52 31° NW 05:18:11 45° N 05:25:49 10° E
Meteor 2-19 Rocket 4.4 05:12:18 10° S 05:18:21 89° WNW 05:24:26 10° N
CZ-4C R/B 2.7 05:21:59 10° S 05:25:03 55° W 05:26:28 28° NW
NOAA 11 4.2 05:19:53 10° NNE 05:25:24 89° ESE 05:30:54 10° SSW
COSMOS 2487 3.5 05:23:44 10° N 05:26:57 41° ENE 05:30:08 10° SE
SKYMED 2 4.3 05:25:19 10° SSW 05:29:14 33° W 05:31:28 20° NW
Cosmos 1500 Rocket 3.7 05:25:27 10° S 05:29:53 82° E 05:34:24 10° N
CZ-2C R/B 3.0 05:28:01 10° NNE 05:32:57 82° ESE 05:38:06 10° SSW
CENTAUR R/B 3.9 05:31:36 18° NW 05:34:26 23° NNW 05:40:12 10° NNE
SMAP 4.2 05:31:14 10° NNE 05:35:44 47° E 05:40:13 10° S
Sich 1 4.4 05:32:05 10° SSE 05:36:07 42° E 05:40:09 10° NNE
ATLAS 5 CENTAUR R/B 1.2 05:36:00 10° SW 05:39:48 74° NW 05:44:06 10° NE
CZ-4B R/B 2.5 05:37:15 10° NNE 05:40:50 87° W 05:44:25 10° SSW
H-2A R/B 4.2 05:36:54 10° NE 05:41:08 28° E 05:45:21 10° SSE
Cosmos 1805 Rocket 4.0 05:37:45 10° S 05:42:05 64° E 05:46:25 10° NNE
Meteor 1-27 Rocket 3.7 05:36:39 10° NNW 05:42:16 66° W 05:47:58 10° S
H-2A R/B 2.2 05:38:41 10° SSE 05:42:57 79° ENE 05:47:21 10° NNW
Meteor PRIRODA 3.5 05:42:05 10° N 05:45:40 65° WNW 05:49:15 10° SSW
Cosmos 1777 Rocket 4.0 05:41:01 10° SSW 05:46:10 61° WNW 05:51:23 10° NNE
SL-8 R/B 4.5 05:45:02 16° W 05:48:20 39° SW 05:52:45 10° SSE
FAST Rocket 4.0 05:46:20 10° SSW 05:48:54 62° W 05:52:05 10° N
USA 32 4.0 05:44:21 10° N 05:49:38 88° W 05:54:52 10° S
Cosmos 773 Rocket 4.4 05:45:02 10° NNW 05:49:56 42° WSW 05:54:46 10° S
Lacrosse 4 Rocket 4.0 05:49:08 10° N 05:51:46 15° NE 05:54:24 10° ENE
Cosmos 1340 Rocket 2.9 05:50:34 10° SSW 05:54:25 52° WNW 05:58:21 10° N
Cosmos 1515 3.6 05:50:43 10° NNW 05:54:32 76° W 05:58:19 10° S
SL-27 R/B 3.5 05:54:53 14° NW 05:57:15 27° WSW 06:00:15 10° SSW
Cosmos 2026 Rocket 4.2 05:51:30 10° S 05:57:50 82° E 06:04:09 10° N
Okean O Rocket 4.4 05:55:33 10° NE 05:58:57 21° E 06:02:19 10° SE
Cosmos 2195 Rocket 4.4 05:55:44 10° S 06:01:52 80° W 06:08:00 10° N
DMSP B5D2-2 4.4 05:57:24 10° S 06:02:25 47° W 06:07:27 10° NNW
ATLAS 3B R/B 2.6 05:56:42 10° SW 06:03:13 75° NW 06:10:07 10° NE
Envisat 4.2 05:59:42 10° NNW 06:03:21 20° WNW 06:07:00 10° WSW
NOAA 6 4.2 05:59:24 10° NNE 06:04:32 82° ESE 06:09:39 10° SSW
Meteor 1-25 Rocket 4.2 06:03:45 10° SSW 06:09:21 73° WNW 06:14:56 10° N
Cosmos 158 Rocket 4.1 06:06:16 10° NNW 06:11:21 62° WSW 06:16:32 10° S
Cosmos 1809 Rocket 4.4 06:06:09 10° SSW 06:12:19 76° W 06:18:29 10° N
PSLV R/B 4.2 06:09:05 10° SSE 06:13:08 74° ENE 06:17:14 10° N
Cosmos 1666 3.8 06:09:29 10° S 06:13:08 49° E 06:16:47 10° NNE
Cosmos 1939 Rocket 3.0 06:10:49 10° N 06:14:37 49° WNW 06:18:21 10° SSW
Cosmos 2297 Rocket 2.8 06:09:58 10° NNW 06:15:36 60° ENE 06:21:11 10° SE
Cosmos 1174 4.2 06:14:20 10° WSW 06:16:51 24° NW 06:19:31 10° N
EO 1 Delta rocket 4.3 06:12:27 10° N 06:18:50 77° WNW 06:23:54 10° SSW
Cosmos 2369 Rocket 3.9 06:17:13 10° WNW 06:19:43 13° NW 06:22:14 10° NNW
Cosmos 1633 Rocket 3.6 06:19:48 10° S 06:24:04 63° E 06:28:22 10° NNE
CZ-4B R/B 1.4 06:20:53 10° S 06:24:10 61° W 06:27:25 10° NNW
Cosmos 1607 4.0 06:18:32 10° NW 06:24:48 79° WSW 06:30:55 10° SSE
USA 215 3.8 06:20:15 10° SSE 06:26:30 47° SW 06:32:46 10° WNW
